Year,Month,Day,Hour,Minute,Value (Times are PST for insolation in W/m^2)
2013,12,01,00,00,0.00
2013,12,01,00,01,0.00
2013,12,01,00,02,0.00
2013,12,01,00,03,0.00
2013,12,01,00,04,0.00
2013,12,01,00,05,0.00
2013,12,01,00,06,0.00
2013,12,01,00,07,0.00
2013,12,01,00,08,0.00
2013,12,01,00,09,0.00
2013,12,01,00,10,0.00
2013,12,01,00,11,0.00
2013,12,01,00,12,0.00
2013,12,01,00,13,0.00
2013,12,01,00,14,0.00
2013,12,01,00,15,0.00
2013,12,01,00,16,0.00
2013,12,01,00,17,0.00
2013,12,01,00,18,0.00
2013,12,01,00,19,0.00
2013,12,01,00,20,0.00
2013,12,01,00,21,0.00
2013,12,01,00,22,0.00
2013,12,01,00,23,0.00
2013,12,01,00,24,0.00
2013,12,01,00,25,0.00
2013,12,01,00,26,0.00
2013,12,01,00,27,0.00
2013,12,01,00,28,0.00
2013,12,01,00,29,0.00
2013,12,01,00,30,0.00
2013,12,01,00,31,0.00
2013,12,01,00,32,0.00
2013,12,01,00,33,0.00
2013,12,01,00,34,0.00
2013,12,01,00,35,0.00
2013,12,01,00,36,0.00
2013,12,01,00,37,0.00
2013,12,01,00,38,0.00
2013,12,01,00,39,0.00
2013,12,01,00,40,0.00
2013,12,01,00,41,0.00
2013,12,01,00,42,0.00
2013,12,01,00,43,0.00
2013,12,01,00,44,0.00
2013,12,01,00,45,0.00
2013,12,01,00,46,0.00
2013,12,01,00,47,0.00
2013,12,01,00,48,0.00
2013,12,01,00,49,0.00
2013,12,01,00,50,0.00
2013,12,01,00,51,0.00
2013,12,01,00,52,0.00
2013,12,01,00,53,0.00
2013,12,01,00,54,0.00
2013,12,01,00,55,0.00
2013,12,01,00,56,0.00
2013,12,01,00,57,0.00
2013,12,01,00,58,0.00
2013,12,01,00,59,0.00
2013,12,01,01,00,0.00
2013,12,01,01,01,0.00
2013,12,01,01,02,0.00
2013,12,01,01,03,0.00
2013,12,01,01,04,0.00
2013,12,01,01,05,0.00
2013,12,01,01,06,0.00
2013,12,01,01,07,0.00
2013,12,01,01,08,0.00
2013,12,01,01,09,0.00
2013,12,01,01,10,0.00
2013,12,01,01,11,0.00
2013,12,01,01,12,0.00
2013,12,01,01,13,0.00
2013,12,01,01,14,0.00
2013,12,01,01,15,0.00
2013,12,01,01,16,0.00
2013,12,01,01,17,0.00
2013,12,01,01,18,0.00
2013,12,01,01,19,0.00
2013,12,01,01,20,0.00
2013,12,01,01,21,0.00
2013,12,01,01,22,0.00
2013,12,01,01,23,0.00
2013,12,01,01,24,0.00
2013,12,01,01,25,0.00
2013,12,01,01,26,0.00
2013,12,01,01,27,0.00
2013,12,01,01,28,0.00
2013,12,01,01,29,0.00
2013,12,01,01,30,0.00
2013,12,01,01,31,0.00
2013,12,01,01,32,0.00
2013,12,01,01,33,0.00
2013,12,01,01,34,0.00
2013,12,01,01,35,0.00
2013,12,01,01,36,0.00
2013,12,01,01,37,0.00
2013,12,01,01,38,0.00
2013,12,01,01,39,0.00
2013,12,01,01,40,0.00
2013,12,01,01,41,0.00
2013,12,01,01,42,0.00
2013,12,01,01,43,0.00
2013,12,01,01,44,0.00
2013,12,01,01,45,0.00
2013,12,01,01,46,0.00
2013,12,01,01,47,0.00
2013,12,01,01,48,0.00
2013,12,01,01,49,0.00
2013,12,01,01,50,0.00
2013,12,01,01,51,0.00
2013,12,01,01,52,0.00
2013,12,01,01,53,0.00
2013,12,01,01,54,0.00
2013,12,01,01,55,0.00
2013,12,01,01,56,0.00
2013,12,01,01,57,0.00
2013,12,01,01,58,0.00
2013,12,01,01,59,0.00
2013,12,01,02,00,0.00
2013,12,01,02,01,0.00
2013,12,01,02,02,0.00
2013,12,01,02,03,0.00
2013,12,01,02,04,0.00
2013,12,01,02,05,0.00
2013,12,01,02,06,0.00
2013,12,01,02,07,0.00
2013,12,01,02,08,0.00
2013,12,01,02,09,0.00
2013,12,01,02,10,0.00
2013,12,01,02,11,0.00
2013,12,01,02,12,0.00
2013,12,01,02,13,0.00
2013,12,01,02,14,0.00
2013,12,01,02,15,0.00
2013,12,01,02,16,0.00
2013,12,01,02,17,0.00
2013,12,01,02,18,0.00
2013,12,01,02,19,0.00
2013,12,01,02,20,0.00
2013,12,01,02,21,0.00
2013,12,01,02,22,0.00
2013,12,01,02,23,0.00
2013,12,01,02,24,0.00
2013,12,01,02,25,0.00
2013,12,01,02,26,0.00
2013,12,01,02,27,0.00
2013,12,01,02,28,0.00
2013,12,01,02,29,0.00
2013,12,01,02,30,0.00
2013,12,01,02,31,0.00
2013,12,01,02,32,0.00
2013,12,01,02,33,0.00
2013,12,01,02,34,0.00
2013,12,01,02,35,0.00
2013,12,01,02,36,0.00
2013,12,01,02,37,0.00
2013,12,01,02,38,0.00
2013,12,01,02,39,0.00
2013,12,01,02,40,0.00
2013,12,01,02,41,0.00
2013,12,01,02,42,0.00
2013,12,01,02,43,0.00
2013,12,01,02,44,0.00
2013,12,01,02,45,0.00
2013,12,01,02,46,0.00
2013,12,01,02,47,0.00
2013,12,01,02,48,0.00
2013,12,01,02,49,0.00
2013,12,01,02,50,0.00
2013,12,01,02,51,0.00
2013,12,01,02,52,0.00
2013,12,01,02,53,0.00
2013,12,01,02,54,0.00
2013,12,01,02,55,0.00
2013,12,01,02,56,0.00
2013,12,01,02,57,0.00
2013,12,01,02,58,0.00
2013,12,01,02,59,0.00
2013,12,01,03,00,0.00
2013,12,01,03,01,0.00
2013,12,01,03,02,0.00
2013,12,01,03,06,0.00
2013,12,01,03,07,0.00
2013,12,01,03,08,0.00
2013,12,01,03,09,0.00
2013,12,01,03,10,0.00
2013,12,01,03,11,0.00
2013,12,01,03,12,0.00
2013,12,01,03,13,0.00
2013,12,01,03,14,0.00
2013,12,01,03,15,0.00
2013,12,01,03,16,0.00
2013,12,01,03,17,0.00
2013,12,01,03,18,0.00
2013,12,01,03,19,0.00
2013,12,01,03,20,0.00
2013,12,01,03,21,0.00
2013,12,01,03,22,0.00
2013,12,01,03,23,0.00
2013,12,01,03,24,0.00
2013,12,01,03,25,0.00
2013,12,01,03,26,0.00
2013,12,01,03,27,0.00
2013,12,01,03,28,0.00
2013,12,01,03,29,0.00
2013,12,01,03,30,0.00
2013,12,01,03,31,0.00
2013,12,01,03,32,0.00
2013,12,01,03,33,0.00
2013,12,01,03,34,0.00
2013,12,01,03,35,0.00
2013,12,01,03,36,0.00
2013,12,01,03,37,0.00
2013,12,01,03,38,0.00
2013,12,01,03,39,0.00
2013,12,01,03,40,0.00
2013,12,01,03,41,0.00
2013,12,01,03,42,0.00
2013,12,01,03,43,0.00
2013,12,01,03,44,0.00
2013,12,01,03,45,0.00
2013,12,01,03,46,0.00
2013,12,01,03,47,0.00
2013,12,01,03,48,0.00
2013,12,01,03,49,0.00
2013,12,01,03,50,0.00
2013,12,01,03,51,0.00
2013,12,01,03,52,0.00
2013,12,01,03,53,0.00
2013,12,01,03,54,0.00
2013,12,01,03,55,0.00
2013,12,01,03,56,0.00
2013,12,01,03,57,0.00
2013,12,01,03,58,0.00
2013,12,01,03,59,0.00
2013,12,01,04,00,0.00
2013,12,01,04,01,0.00
2013,12,01,04,02,0.00
2013,12,01,04,03,0.00
2013,12,01,04,04,0.00
2013,12,01,04,05,0.00
2013,12,01,04,06,0.00
2013,12,01,04,07,0.00
2013,12,01,04,08,0.00
2013,12,01,04,09,0.00
2013,12,01,04,10,0.00
2013,12,01,04,11,0.00
2013,12,01,04,12,0.00
2013,12,01,04,13,0.00
2013,12,01,04,14,0.00
2013,12,01,04,15,0.00
2013,12,01,04,16,0.00
2013,12,01,04,17,0.00
2013,12,01,04,18,0.00
2013,12,01,04,19,0.00
2013,12,01,04,20,0.00
2013,12,01,04,21,0.00
2013,12,01,04,22,0.00
2013,12,01,04,23,0.00
2013,12,01,04,24,0.00
2013,12,01,04,25,0.00
2013,12,01,04,26,0.00
2013,12,01,04,27,0.00
2013,12,01,04,28,0.00
2013,12,01,04,29,0.00
2013,12,01,04,30,0.00
2013,12,01,04,31,0.00
2013,12,01,04,32,0.00
2013,12,01,04,33,0.00
2013,12,01,04,34,0.00
2013,12,01,04,35,0.00
2013,12,01,04,36,0.00
2013,12,01,04,37,0.00
2013,12,01,04,38,0.00
2013,12,01,04,39,0.00
2013,12,01,04,40,0.00
2013,12,01,04,41,0.00
2013,12,01,04,42,0.00
2013,12,01,04,43,0.00
2013,12,01,04,44,0.00
2013,12,01,04,45,0.00
2013,12,01,04,46,0.00
2013,12,01,04,47,0.00
2013,12,01,04,48,0.00
2013,12,01,04,49,0.00
2013,12,01,04,50,0.00
2013,12,01,04,51,0.00
2013,12,01,04,52,0.00
2013,12,01,04,53,0.00
2013,12,01,04,54,0.00
2013,12,01,04,55,0.00
2013,12,01,04,56,0.00
2013,12,01,04,57,0.00
2013,12,01,04,58,0.00
2013,12,01,04,59,0.00
2013,12,01,05,00,0.00
2013,12,01,05,01,0.00
2013,12,01,05,02,0.00
2013,12,01,05,03,0.00
2013,12,01,05,04,0.00
2013,12,01,05,05,0.00
2013,12,01,05,06,0.00
2013,12,01,05,07,0.00
2013,12,01,05,08,0.00
2013,12,01,05,09,0.00
2013,12,01,05,10,0.00
2013,12,01,05,11,0.00
2013,12,01,05,12,0.00
2013,12,01,05,13,0.00
2013,12,01,05,14,0.00
2013,12,01,05,15,0.00
2013,12,01,05,16,0.00
2013,12,01,05,17,0.00
2013,12,01,05,18,0.00
2013,12,01,05,19,0.00
2013,12,01,05,20,0.00
2013,12,01,05,21,0.00
2013,12,01,05,22,0.00
2013,12,01,05,23,0.00
2013,12,01,05,24,0.00
2013,12,01,05,25,0.00
2013,12,01,05,26,0.00
2013,12,01,05,27,0.00
2013,12,01,05,28,0.00
2013,12,01,05,29,0.00
2013,12,01,05,30,0.00
2013,12,01,05,31,0.00
2013,12,01,05,32,0.00
2013,12,01,05,33,0.00
2013,12,01,05,34,0.00
2013,12,01,05,35,0.00
2013,12,01,05,36,0.00
2013,12,01,05,37,0.00
2013,12,01,05,38,0.00
2013,12,01,05,39,0.00
2013,12,01,05,40,0.00
2013,12,01,05,41,0.00
2013,12,01,05,42,0.00
2013,12,01,05,43,0.00
2013,12,01,05,44,0.00
2013,12,01,05,45,0.00
2013,12,01,05,46,0.00
2013,12,01,05,47,0.00
2013,12,01,05,48,0.00
2013,12,01,05,49,0.00
2013,12,01,05,50,0.00
2013,12,01,05,51,0.00
2013,12,01,05,52,0.00
2013,12,01,05,53,0.00
2013,12,01,05,54,0.00
2013,12,01,05,55,0.00
2013,12,01,05,56,0.00
2013,12,01,05,57,0.00
2013,12,01,05,58,0.00
2013,12,01,05,59,0.00
2013,12,01,06,00,0.00
2013,12,01,06,01,0.00
2013,12,01,06,02,0.00
2013,12,01,06,03,0.00
2013,12,01,06,04,0.00
2013,12,01,06,05,0.00
2013,12,01,06,06,0.00
2013,12,01,06,07,0.00
2013,12,01,06,08,0.00
2013,12,01,06,09,0.00
2013,12,01,06,10,0.00
2013,12,01,06,11,0.00
2013,12,01,06,12,0.00
2013,12,01,06,13,0.00
2013,12,01,06,14,0.00
2013,12,01,06,15,0.00
2013,12,01,06,16,0.00
2013,12,01,06,17,0.00
2013,12,01,06,18,0.00
2013,12,01,06,19,0.00
2013,12,01,06,20,0.00
2013,12,01,06,21,0.00
2013,12,01,06,22,0.00
2013,12,01,06,23,0.00
2013,12,01,06,24,0.00
2013,12,01,06,25,0.00
2013,12,01,06,26,0.00
2013,12,01,06,27,0.00
2013,12,01,06,28,0.00
2013,12,01,06,29,0.00
2013,12,01,06,30,0.00
2013,12,01,06,31,0.00
2013,12,01,06,32,0.00
2013,12,01,06,33,0.00
2013,12,01,06,34,0.00
2013,12,01,06,35,0.00
2013,12,01,06,36,0.00
2013,12,01,06,37,0.00
2013,12,01,06,38,0.00
2013,12,01,06,39,0.00
2013,12,01,06,40,0.00
2013,12,01,06,41,0.00
2013,12,01,06,42,0.00
2013,12,01,06,43,0.00
2013,12,01,06,44,0.00
2013,12,01,06,45,0.00
2013,12,01,06,46,0.00
2013,12,01,06,47,0.00
2013,12,01,06,48,0.00
2013,12,01,06,49,0.00
2013,12,01,06,50,0.00
2013,12,01,06,51,0.00
2013,12,01,06,52,0.00
2013,12,01,06,53,0.00
2013,12,01,06,54,0.00
2013,12,01,06,55,0.00
2013,12,01,06,56,0.00
2013,12,01,06,57,0.00
2013,12,01,06,58,0.00
2013,12,01,06,59,0.00
2013,12,01,07,00,0.00
2013,12,01,07,01,0.00
2013,12,01,07,02,0.00
2013,12,01,07,03,0.00
2013,12,01,07,04,0.00
2013,12,01,07,05,0.00
2013,12,01,07,06,0.00
2013,12,01,07,07,0.00
2013,12,01,07,08,0.00
2013,12,01,07,09,0.00
2013,12,01,07,10,0.00
2013,12,01,07,11,0.00
2013,12,01,07,12,0.00
2013,12,01,07,13,0.00
2013,12,01,07,14,0.00
2013,12,01,07,15,0.00
2013,12,01,07,16,0.00
2013,12,01,07,17,0.00
2013,12,01,07,18,0.00
2013,12,01,07,19,0.00
2013,12,01,07,20,0.00
2013,12,01,07,21,0.00
2013,12,01,07,22,0.00
2013,12,01,07,23,0.00
2013,12,01,07,24,0.00
2013,12,01,07,25,0.00
2013,12,01,07,26,0.00
2013,12,01,07,27,0.00
2013,12,01,07,28,0.00
2013,12,01,07,29,0.00
2013,12,01,07,30,0.00
2013,12,01,07,31,0.00
2013,12,01,07,32,0.00
2013,12,01,07,33,0.00
2013,12,01,07,34,0.00
2013,12,01,07,35,0.00
2013,12,01,07,36,0.00
2013,12,01,07,37,0.00
2013,12,01,07,38,0.00
2013,12,01,07,39,0.00
2013,12,01,07,40,0.00
2013,12,01,07,41,0.00
2013,12,01,07,42,0.00
2013,12,01,07,43,0.00
2013,12,01,07,44,0.00
2013,12,01,07,45,0.00
2013,12,01,07,46,0.00
2013,12,01,07,47,0.00
2013,12,01,07,48,0.00
2013,12,01,07,49,0.00
2013,12,01,07,50,0.00
2013,12,01,07,51,0.00
2013,12,01,07,52,0.00
2013,12,01,07,53,0.00
2013,12,01,07,54,0.00
2013,12,01,07,55,0.00
2013,12,01,07,56,0.00
2013,12,01,07,57,0.00
2013,12,01,07,58,0.00
2013,12,01,07,59,0.00
2013,12,01,08,00,0.00
2013,12,01,08,01,0.00
2013,12,01,08,02,0.00
2013,12,01,08,03,0.00
2013,12,01,08,04,0.00
2013,12,01,08,05,0.50
2013,12,01,08,06,5.00
2013,12,01,08,07,5.00
2013,12,01,08,08,5.00
2013,12,01,08,09,5.80
2013,12,01,08,10,7.00
2013,12,01,08,11,7.00
2013,12,01,08,12,8.30
2013,12,01,08,13,9.00
2013,12,01,08,14,9.00
2013,12,01,08,15,10.80
2013,12,01,08,16,11.00
2013,12,01,08,17,11.00
2013,12,01,08,18,11.00
2013,12,01,08,19,11.00
2013,12,01,08,20,11.00
2013,12,01,08,21,11.00
2013,12,01,08,22,11.00
2013,12,01,08,23,11.70
2013,12,01,08,24,12.00
2013,12,01,08,25,11.10
2013,12,01,08,26,11.90
2013,12,01,08,27,14.00
2013,12,01,08,28,14.40
2013,12,01,08,29,15.50
2013,12,01,08,30,14.70
2013,12,01,08,31,16.90
2013,12,01,08,32,18.00
2013,12,01,08,33,18.60
2013,12,01,08,34,19.00
2013,12,01,08,35,18.30
2013,12,01,08,36,18.00
2013,12,01,08,37,18.00
2013,12,01,08,38,18.00
2013,12,01,08,39,18.00
2013,12,01,08,40,18.00
2013,12,01,08,41,17.40
2013,12,01,08,42,16.00
2013,12,01,08,43,16.00
2013,12,01,08,44,16.00
2013,12,01,08,45,16.00
2013,12,01,08,46,17.50
2013,12,01,08,47,18.00
2013,12,01,08,48,18.00
2013,12,01,08,49,19.00
2013,12,01,08,50,19.00
2013,12,01,08,51,19.50
2013,12,01,08,52,21.70
2013,12,01,08,53,23.00
2013,12,01,08,54,23.00
2013,12,01,08,55,21.80
2013,12,01,08,56,21.00
2013,12,01,08,57,21.00
2013,12,01,08,58,21.00
2013,12,01,08,59,22.80
2013,12,01,09,00,25.10
2013,12,01,09,01,26.40
2013,12,01,09,02,28.00
2013,12,01,09,03,28.00
2013,12,01,09,04,28.90
2013,12,01,09,05,30.00
2013,12,01,09,06,28.80
2013,12,01,09,07,28.00
2013,12,01,09,08,28.00
2013,12,01,09,09,25.50
2013,12,01,09,10,25.00
2013,12,01,09,11,25.10
2013,12,01,09,12,26.30
2013,12,01,09,13,28.50
2013,12,01,09,14,30.60
2013,12,01,09,15,32.00
2013,12,01,09,16,32.00
2013,12,01,09,17,32.50
2013,12,01,09,18,34.30
2013,12,01,09,19,36.50
2013,12,01,09,20,35.30
2013,12,01,09,21,35.00
2013,12,01,09,22,35.20
2013,12,01,09,23,38.70
2013,12,01,09,24,37.00
2013,12,01,09,25,37.00
2013,12,01,09,26,37.00
2013,12,01,09,27,37.00
2013,12,01,09,28,35.90
2013,12,01,09,29,33.60
2013,12,01,09,30,30.80
2013,12,01,09,31,26.60
2013,12,01,09,32,25.10
2013,12,01,09,33,25.30
2013,12,01,09,34,28.00
2013,12,01,09,35,28.50
2013,12,01,09,36,28.20
2013,12,01,09,37,22.30
2013,12,01,09,38,20.00
2013,12,01,09,39,22.20
2013,12,01,09,40,25.00
2013,12,01,09,41,27.50
2013,12,01,09,42,29.70
2013,12,01,09,43,31.80
2013,12,01,09,44,30.20
2013,12,01,09,45,32.00
2013,12,01,09,46,32.20
2013,12,01,09,47,33.00
2013,12,01,09,48,33.90
2013,12,01,09,49,36.00
2013,12,01,09,50,38.20
2013,12,01,09,51,42.20
2013,12,01,09,52,46.20
2013,12,01,09,53,47.00
2013,12,01,09,54,47.00
2013,12,01,09,55,47.20
2013,12,01,09,56,49.30
2013,12,01,09,57,51.80
2013,12,01,09,58,54.00
2013,12,01,09,59,54.90
2013,12,01,10,00,55.00
2013,12,01,10,01,53.40
2013,12,01,10,02,51.70
2013,12,01,10,03,52.50
2013,12,01,10,04,55.40
2013,12,01,10,05,57.80
2013,12,01,10,06,58.00
2013,12,01,10,07,59.10
2013,12,01,10,08,65.00
2013,12,01,10,09,65.00
2013,12,01,10,10,69.10
2013,12,01,10,11,75.50
2013,12,01,10,12,79.40
2013,12,01,10,13,82.30
2013,12,01,10,14,83.00
2013,12,01,10,15,88.90
2013,12,01,10,16,90.90
2013,12,01,10,17,91.00
2013,12,01,10,18,90.80
2013,12,01,10,19,89.50
2013,12,01,10,20,87.30
2013,12,01,10,21,85.20
2013,12,01,10,22,84.00
2013,12,01,10,23,84.00
2013,12,01,10,24,84.00
2013,12,01,10,25,85.50
2013,12,01,10,26,86.00
2013,12,01,10,27,87.80
2013,12,01,10,28,85.80
2013,12,01,10,29,84.00
2013,12,01,10,30,84.00
2013,12,01,10,31,84.00
2013,12,01,10,32,84.90
2013,12,01,10,33,87.00
2013,12,01,10,34,89.20
2013,12,01,10,35,90.00
2013,12,01,10,36,88.50
2013,12,01,10,37,88.00
2013,12,01,10,38,86.20
2013,12,01,10,39,86.00
2013,12,01,10,40,85.60
2013,12,01,10,41,83.80
2013,12,01,10,42,83.30
2013,12,01,10,43,82.80
2013,12,01,10,44,78.50
2013,12,01,10,45,73.60
2013,12,01,10,46,69.90
2013,12,01,10,47,67.50
2013,12,01,10,48,65.40
2013,12,01,10,49,63.20
2013,12,01,10,50,61.40
2013,12,01,10,51,56.00
2013,12,01,10,52,56.00
2013,12,01,10,53,59.80
2013,12,01,10,54,69.20
2013,12,01,10,55,74.00
2013,12,01,10,56,76.00
2013,12,01,10,57,80.30
2013,12,01,10,58,90.50
2013,12,01,10,59,93.00
2013,12,01,11,00,99.30
2013,12,01,11,01,101.30
2013,12,01,11,02,115.00
2013,12,01,11,03,127.00
2013,12,01,11,04,142.00
2013,12,01,11,05,150.40
2013,12,01,11,06,166.00
2013,12,01,11,07,170.20
2013,12,01,11,08,168.20
2013,12,01,11,09,158.20
2013,12,01,11,10,196.60
2013,12,01,11,11,170.80
2013,12,01,11,12,146.10
2013,12,01,11,13,165.00
2013,12,01,11,14,165.00
2013,12,01,11,15,233.90
2013,12,01,11,16,363.60
2013,12,01,11,17,366.00
2013,12,01,11,18,366.00
2013,12,01,11,19,362.10
2013,12,01,11,20,349.50
2013,12,01,11,21,340.30
2013,12,01,11,22,339.00
2013,12,01,11,23,324.70
2013,12,01,11,24,322.20
2013,12,01,11,25,323.50
2013,12,01,11,26,325.00
2013,12,01,11,27,325.80
2013,12,01,11,28,327.00
2013,12,01,11,29,328.10
2013,12,01,11,30,326.40
2013,12,01,11,31,325.00
2013,12,01,11,32,323.30
2013,12,01,11,33,323.00
2013,12,01,11,34,323.00
2013,12,01,11,35,323.30
2013,12,01,11,36,325.00
2013,12,01,11,37,325.00
2013,12,01,11,38,325.00
2013,12,01,11,39,325.00
2013,12,01,11,40,326.20
2013,12,01,11,41,327.00
2013,12,01,11,42,328.50
2013,12,01,11,43,331.50
2013,12,01,11,44,335.60
2013,12,01,11,45,339.10
2013,12,01,11,46,341.30
2013,12,01,11,47,343.00
2013,12,01,11,48,343.70
2013,12,01,11,49,345.00
2013,12,01,11,50,343.00
2013,12,01,11,51,343.80
2013,12,01,11,52,352.80
2013,12,01,11,53,363.80
2013,12,01,11,54,360.00
2013,12,01,11,55,346.40
2013,12,01,11,56,343.70
2013,12,01,11,57,351.60
2013,12,01,11,58,363.20
2013,12,01,11,59,373.40
2013,12,01,12,00,374.00
2013,12,01,12,01,371.60
2013,12,01,12,02,369.00
2013,12,01,12,03,385.20
2013,12,01,12,04,389.70
2013,12,01,12,05,388.00
2013,12,01,12,06,391.60
2013,12,01,12,07,398.10
2013,12,01,12,08,410.40
2013,12,01,12,09,422.40
2013,12,01,12,10,414.50
2013,12,01,12,11,405.80
2013,12,01,12,12,406.80
2013,12,01,12,13,411.00
2013,12,01,12,14,411.00
2013,12,01,12,15,382.50
2013,12,01,12,16,356.20
2013,12,01,12,17,345.80
2013,12,01,12,18,341.40
2013,12,01,12,19,348.30
2013,12,01,12,20,350.00
2013,12,01,12,21,355.10
2013,12,01,12,22,366.60
2013,12,01,12,23,368.20
2013,12,01,12,24,379.40
2013,12,01,12,25,387.10
2013,12,01,12,26,389.50
2013,12,01,12,27,395.10
2013,12,01,12,28,405.00
2013,12,01,12,29,403.50
2013,12,01,12,30,398.50
2013,12,01,12,31,394.70
2013,12,01,12,32,392.70
2013,12,01,12,33,399.00
2013,12,01,12,34,399.00
2013,12,01,12,35,401.90
2013,12,01,12,36,405.40
2013,12,01,12,37,399.00
2013,12,01,12,38,396.80
2013,12,01,12,39,397.00
2013,12,01,12,40,396.80
2013,12,01,12,41,392.80
2013,12,01,12,42,401.90
2013,12,01,12,43,429.70
2013,12,01,12,44,439.80
2013,12,01,12,45,431.40
2013,12,01,12,46,420.00
2013,12,01,12,47,417.00
2013,12,01,12,48,396.70
2013,12,01,12,49,388.00
2013,12,01,12,50,318.70
2013,12,01,12,51,311.00
2013,12,01,12,52,311.00
2013,12,01,12,53,328.20
2013,12,01,12,54,380.00
2013,12,01,12,55,343.20
2013,12,01,12,56,299.00
2013,12,01,12,57,320.30
2013,12,01,12,58,314.30
2013,12,01,12,59,318.00
2013,12,01,13,00,330.00
2013,12,01,13,01,302.30
2013,12,01,13,02,294.40
2013,12,01,13,03,263.50
2013,12,01,13,04,334.00
2013,12,01,13,05,316.10
2013,12,01,13,06,277.60
2013,12,01,13,07,271.00
2013,12,01,13,08,196.30
2013,12,01,13,09,141.30
2013,12,01,13,10,141.00
2013,12,01,13,11,152.90
2013,12,01,13,12,140.60
2013,12,01,13,13,204.40
2013,12,01,13,14,243.80
2013,12,01,13,15,201.40
2013,12,01,13,16,142.00
2013,12,01,13,17,163.90
2013,12,01,13,18,223.00
2013,12,01,13,19,210.90
2013,12,01,13,20,174.30
2013,12,01,13,21,172.00
2013,12,01,13,22,172.00
2013,12,01,13,23,267.40
2013,12,01,13,24,256.40
2013,12,01,13,25,255.40
2013,12,01,13,26,188.50
2013,12,01,13,27,218.10
2013,12,01,13,28,199.00
2013,12,01,13,29,222.70
2013,12,01,13,30,249.40
2013,12,01,13,31,239.00
2013,12,01,13,32,329.00
2013,12,01,13,33,365.80
2013,12,01,13,34,330.90
2013,12,01,13,35,320.40
2013,12,01,13,36,169.80
2013,12,01,13,37,212.00
2013,12,01,13,38,260.00
2013,12,01,13,39,226.20
2013,12,01,13,40,214.00
2013,12,01,13,41,270.00
2013,12,01,13,42,219.60
2013,12,01,13,43,183.10
2013,12,01,13,44,225.50
2013,12,01,13,45,217.10
2013,12,01,13,46,288.00
2013,12,01,13,47,266.00
2013,12,01,13,48,141.00
2013,12,01,13,49,138.90
2013,12,01,13,50,143.60
2013,12,01,13,51,142.50
2013,12,01,13,52,118.20
2013,12,01,13,53,112.30
2013,12,01,13,54,113.70
2013,12,01,13,55,114.00
2013,12,01,13,56,114.00
2013,12,01,13,57,120.00
2013,12,01,13,58,120.00
2013,12,01,13,59,123.80
2013,12,01,14,00,142.50
2013,12,01,14,01,168.40
2013,12,01,14,02,176.50
2013,12,01,14,03,167.10
2013,12,01,14,04,155.20
2013,12,01,14,05,157.80
2013,12,01,14,06,156.60
2013,12,01,14,07,137.10
2013,12,01,14,08,135.00
2013,12,01,14,09,152.80
2013,12,01,14,10,248.00
2013,12,01,14,11,248.00
2013,12,01,14,12,198.80
2013,12,01,14,13,120.70
2013,12,01,14,14,116.00
2013,12,01,14,15,121.80
2013,12,01,14,16,136.20
2013,12,01,14,17,146.60
2013,12,01,14,18,144.40
2013,12,01,14,19,132.00
2013,12,01,14,20,132.00
2013,12,01,14,21,140.80
2013,12,01,14,22,167.00
2013,12,01,14,23,154.20
2013,12,01,14,24,137.00
2013,12,01,14,25,139.00
2013,12,01,14,26,139.00
2013,12,01,14,27,163.00
2013,12,01,14,28,175.20
2013,12,01,14,29,136.90
2013,12,01,14,30,87.90
2013,12,01,14,31,81.00
2013,12,01,14,32,81.80
2013,12,01,14,33,83.70
2013,12,01,14,34,79.40
2013,12,01,14,35,72.20
2013,12,01,14,36,77.20
2013,12,01,14,37,90.80
2013,12,01,14,38,89.80
2013,12,01,14,39,79.20
2013,12,01,14,40,66.10
2013,12,01,14,41,64.10
2013,12,01,14,42,47.00
2013,12,01,14,43,48.60
2013,12,01,14,44,55.70
2013,12,01,14,45,66.00
2013,12,01,14,46,77.20
2013,12,01,14,47,87.40
2013,12,01,14,48,94.90
2013,12,01,14,49,95.50
2013,12,01,14,50,93.40
2013,12,01,14,51,99.30
2013,12,01,14,52,100.50
2013,12,01,14,53,105.00
2013,12,01,14,54,102.60
2013,12,01,14,55,92.00
2013,12,01,14,56,90.40
2013,12,01,14,57,92.80
2013,12,01,14,58,96.10
2013,12,01,14,59,93.20
2013,12,01,15,00,86.10
2013,12,01,15,01,83.20
2013,12,01,15,02,81.20
2013,12,01,15,03,80.90
2013,12,01,15,04,78.70
2013,12,01,15,05,78.00
2013,12,01,15,06,78.60
2013,12,01,15,07,69.60
2013,12,01,15,08,59.50
2013,12,01,15,09,54.80
2013,12,01,15,10,53.30
2013,12,01,15,11,50.20
2013,12,01,15,12,46.60
2013,12,01,15,13,46.00
2013,12,01,15,14,42.00
2013,12,01,15,15,41.70
2013,12,01,15,16,39.80
2013,12,01,15,17,39.00
2013,12,01,15,18,39.00
2013,12,01,15,19,37.00
2013,12,01,15,20,33.90
2013,12,01,15,21,32.30
2013,12,01,15,22,29.00
2013,12,01,15,23,25.60
2013,12,01,15,24,21.40
2013,12,01,15,25,19.00
2013,12,01,15,26,17.70
2013,12,01,15,27,16.00
2013,12,01,15,28,16.00
2013,12,01,15,29,16.00
2013,12,01,15,30,16.90
2013,12,01,15,31,18.00
2013,12,01,15,32,18.00
2013,12,01,15,33,16.60
2013,12,01,15,34,16.00
2013,12,01,15,35,16.00
2013,12,01,15,36,15.90
2013,12,01,15,37,14.00
2013,12,01,15,38,14.00
2013,12,01,15,39,13.40
2013,12,01,15,40,11.60
2013,12,01,15,41,10.10
2013,12,01,15,42,7.90
2013,12,01,15,43,5.70
2013,12,01,15,44,5.00
2013,12,01,15,45,5.00
2013,12,01,15,46,6.90
2013,12,01,15,47,7.10
2013,12,01,15,48,9.30
2013,12,01,15,49,11.00
2013,12,01,15,50,11.00
2013,12,01,15,51,10.20
2013,12,01,15,52,8.00
2013,12,01,15,53,7.00
2013,12,01,15,54,5.70
2013,12,01,15,55,5.00
2013,12,01,15,56,1.00
2013,12,01,15,57,0.00
2013,12,01,15,58,0.00
2013,12,01,15,59,0.00
2013,12,01,16,00,0.00
2013,12,01,16,01,0.00
2013,12,01,16,02,0.00
2013,12,01,16,03,0.00
2013,12,01,16,04,0.00
2013,12,01,16,05,0.00
2013,12,01,16,06,0.00
2013,12,01,16,07,0.00
2013,12,01,16,08,0.00
2013,12,01,16,09,0.00
2013,12,01,16,10,0.00
2013,12,01,16,11,0.00
2013,12,01,16,12,0.00
2013,12,01,16,13,0.00
2013,12,01,16,14,0.00
2013,12,01,16,15,0.00
2013,12,01,16,16,3.20
2013,12,01,16,17,6.40
2013,12,01,16,18,8.60
2013,12,01,16,19,7.20
2013,12,01,16,20,5.00
2013,12,01,16,21,4.20
2013,12,01,16,22,0.00
2013,12,01,16,23,0.00
2013,12,01,16,24,0.00
2013,12,01,16,25,0.00
2013,12,01,16,26,0.00
2013,12,01,16,27,0.00
2013,12,01,16,28,0.00
2013,12,01,16,29,0.00
2013,12,01,16,30,0.00
2013,12,01,16,31,0.00
2013,12,01,16,32,0.00
2013,12,01,16,33,0.00
2013,12,01,16,34,0.00
2013,12,01,16,35,0.00
2013,12,01,16,36,0.00
2013,12,01,16,37,0.00
2013,12,01,16,38,0.00
2013,12,01,16,39,0.00
2013,12,01,16,40,0.00
2013,12,01,16,41,0.00
2013,12,01,16,42,0.00
2013,12,01,16,43,0.00
2013,12,01,16,44,0.00
2013,12,01,16,45,0.00
2013,12,01,16,46,0.00
2013,12,01,16,47,0.00
2013,12,01,16,48,0.00
2013,12,01,16,49,0.00
2013,12,01,16,50,0.00
2013,12,01,16,51,0.00
2013,12,01,16,52,0.00
2013,12,01,16,53,0.00
2013,12,01,16,54,0.00
2013,12,01,16,55,0.00
2013,12,01,16,56,0.00
2013,12,01,16,57,0.00
2013,12,01,16,58,0.00
2013,12,01,16,59,0.00
2013,12,01,17,00,0.00
2013,12,01,17,01,0.00
2013,12,01,17,02,0.00
2013,12,01,17,03,0.00
2013,12,01,17,04,0.00
2013,12,01,17,05,0.00
2013,12,01,17,06,0.00
2013,12,01,17,07,0.00
2013,12,01,17,08,0.00
2013,12,01,17,09,0.00
2013,12,01,17,10,0.00
2013,12,01,17,11,0.00
2013,12,01,17,12,0.00
2013,12,01,17,13,0.00
2013,12,01,17,14,0.00
2013,12,01,17,15,0.00
2013,12,01,17,16,0.00
2013,12,01,17,17,0.00
2013,12,01,17,18,0.00
2013,12,01,17,19,0.00
2013,12,01,17,20,0.00
2013,12,01,17,21,0.00
2013,12,01,17,22,0.00
2013,12,01,17,23,0.00
2013,12,01,17,24,0.00
2013,12,01,17,25,0.00
2013,12,01,17,26,0.00
2013,12,01,17,27,0.00
2013,12,01,17,28,0.00
2013,12,01,17,29,0.00
2013,12,01,17,30,0.00
2013,12,01,17,31,0.00
2013,12,01,17,32,0.00
2013,12,01,17,33,0.00
2013,12,01,17,34,0.00
2013,12,01,17,35,0.00
2013,12,01,17,36,0.00
2013,12,01,17,37,0.00
2013,12,01,17,38,0.00
2013,12,01,17,39,0.00